Location: Unspecified
(43.8044°N, 11.0278°E)
Time: 12:07:08
(UTC+02:00)

Cosmos 2058 - Visible Passes

Search period start: 20 August 2017 00:00
Search period end: 30 August 2017 00:00
Orbit: 562 x 586 km, 82.5° (Epoch: 20 August)

Date Brightness Start Highest point End Pass type
(mag) Time Alt. Az. Time Alt. Az. Time Alt. Az.
20 Aug 4.2 03:15:42 10° N 03:18:12 36° N 03:18:12 36° N visible
21 Aug 5.9 01:44:27 10° NE 01:44:57 11° NE 01:44:57 11° NE visible
21 Aug 4.5 03:19:04 10° NNW 03:21:09 28° NNW 03:21:09 28° NNW visible
22 Aug 5.8 01:46:53 10° NE 01:47:55 13° NE 01:47:55 13° NE visible
22 Aug 4.8 03:22:29 10° NNW 03:24:07 22° NNW 03:24:07 22° NNW visible
23 Aug 5.7 01:49:43 10° NNE 01:50:55 15° NE 01:50:55 15° NE visible
23 Aug 5.1 03:25:58 10° NNW 03:27:07 17° NW 03:27:07 17° NW visible
24 Aug 5.6 01:52:42 10° NNE 01:53:57 16° NNE 01:53:57 16° NNE visible
24 Aug 5.4 03:29:30 10° NNW 03:30:08 13° NW 03:30:08 13° NW visible
25 Aug 5.6 01:55:49 10° NNE 01:56:59 17° NNE 01:56:59 17° NNE visible
25 Aug 5.6 03:33:09 10° NW 03:33:11 10° NW 03:33:11 10° NW visible
26 Aug 5.7 01:58:59 10° N 02:00:02 17° NNE 02:00:02 17° NNE visible
27 Aug 5.7 02:02:13 10° N 02:03:06 16° N 02:03:06 16° N visible
28 Aug 5.8 02:05:29 10° N 02:06:12 15° N 02:06:12 15° N visible
29 Aug 5.9 02:08:49 10° N 02:09:18 13° N 02:09:18 13° N visible
